Погода в Катаколо

Греция     37°38′50″N   21°18′58″E
темп.,
°C
ветер,
м/с
пор.,
м/с
влажн.,
%
обл.,
%
осадки,
мм/ч
давл.,
гПа
погр.,
м
7 марта, вс
вс723:00+12св33830 0.0 1023108
02:00+12ссв34850 0.0 1023163
05:00+12ссв56830 0.0 1022282
08:00+12ссв45820 0.0 1023251
11:00+15с12660 0.0 1023504
14:00+15зюз23650 0.0 1022483
17:00+15зюз33670 0.0 1021650
20:00+14з22721 0.0 1021501
8 марта, пн
пн823:00+14юз347520 0.1 1021558
02:00+14з347425 0.2 1020560
05:00+12ссз127612 0.1 1019417
08:00+12в338456 0.1 1018128
11:00+14ю2272100 0.0 1018525
14:00+15ююз3272100 0.1 1016582
17:00+14юз4475100 0.1 1015576
20:00+14ююз1176100 0.4 1015305
9 марта, вт
вт923:00+13всв2282100 0.7 101662
02:00+12ссв3384100 0.8 1015139
05:00+12ссв578296 0.0 1014246
08:00+12ссв588148 0.0 1015324
11:00+15ссв44690 0.0 1015552
14:00+16сз43670 0.0 1015503
17:00+16ссз326762 0.0 1014361
20:00+14ссз227180 0.0 1016113
10 марта, ср
ср1023:00+13всв1174100 0.0 101789
02:00+13всв1176100 0.0 101687
05:00+13сз127395 0.0 1015401
08:00+13вюв227647 0.0 1015116
11:00+14ю34730 0.0 1015489
14:00+15юз787623 0.6 1014876
17:00+15з788066 1.5 1013814
20:00+13с678677 4.1 1015286
11 марта, чт
чт1123:00+13ссз7108056 0.2 1017510
02:00+13ссз8117728 0.2 1017676
05:00+12ссз68760 0.0 1017660
08:00+13ссз68750 0.0 1020779
11:00+14ссз56660 0.0 10221083
14:00+15сз54670 0.0 1022808
17:00+14ссз55610 0.0 1023532
20:00+12ссв57670 0.0 1025287